User: anonymous   Login
Location: Mentone
(34.5413°N, 85.5351°W)
Time: 16:26:37
(UTC-05:00)
Language:

ADEOS Rocket - Orbit

View from above orbital plane
View from above orbital plane
View from above satellite
View from above satellite

Ground track
Ground track

The orbit data is extracted from the following two-line orbital elements,

1 24279U 96046C   15245.97489519 -.00000007 +00000-0 +34194-4 0  9991
2 24279 098.6955 262.3014 0300670 155.2347 217.6638 13.47032173936034
Epoch (UTC): 02 September 2015 23:23:50
Eccentricity: 0.0300670
inclination: 98.6955°
perigee height: 859 km
apogee height: 1307 km
right ascension of ascending node: 262.3014°
argument of perigee: 155.2347°
revolutions per day: 13.47032173
mean anomaly at epoch: 217.6638°
orbit number at epoch: 93603

The dashed part of the orbit path shows where the satellite is in the earth's shadow,  

DLR